sat.trackr.live / text

‹ back to catalog

STARLINK-32932

NORAD 63083 · 2025-037G

PAYLOAD ACTIVE UNKNOWN

§ Identity

Operator
Country
US
Launch date
2025-02-23
Launch site
AFWTR
Launch vehicle
Mass (kg)
RCS (m²)

Purposes: comms

External: N2YO · Heavens-Above · Gunter

§ Orbital elements

Epoch: 2026-09-20T07:02:49.070400Z

Period
94.14 min
Inclination
70.0000°
Eccentricity
0.0002666
Mean motion
15.29582216 rev/d
Perigee alt
475.2 km
Apogee alt
478.9 km
Semi-major
6,855.2 km
B*
2.7256e-4
RAAN
221.3300°
Arg perigee
259.5629°
Mean anomaly
100.5246°
Rev number
8,767

§ Raw data

STARLINK-329321 63083U 25037G   26263.29362350  .00007716  00000+0  27256-3 0  99912 63083  70.0000 221.3300 0002666 259.5629 100.5246 15.29582216 87675

JSON: /api/v1/satellites/63083 · /tle

For live sub-satellite position, see the globe view (requires WebGL).

§ Visibility from observer

Set your observer location to see the next 7 days of passes ≥ 10°. The values pass through the URL so the page stays shareable.

No JS? Fill the form by hand. The geolocation button needs JavaScript.